Location: Boiro
(42.6475°N, 8.8834°W)
Time: 18:23:50
(UTC+01:00)

Tiros 1 despin weight - Pass Details

Date: 01 December 2021
Orbit: 592 x 641 km, 48.2° (Epoch: 20 January)

Event Time Altitude Azimuth Distance (km) Brightness Sun altitude
Rises 13:50:48 0° 184° (S) 2,827 ? 25.2°
Reaches altitude 10° 13:54:38 10° 150° (SSE) 1,922 ? 25.1°
Maximum altitude 13:56:02 11° 132° (SE) 1,832 ? 25.1°
Drops below altitude 10° 13:57:26 10° 113° (ESE) 1,921 ? 25.0°
Sets 14:01:16 0° 79° (E) 2,823 ? 24.9°
